Location: Unspecified
(0.0000°N, 0.0000°E)
Time: 18:56:10
(UTC+00:00)

MetOp-A - Pass Details

Date: 09 August 2021
Orbit: 819 x 821 km, 98.5° (Epoch: 26 September)

Event Time Altitude Azimuth Distance (km) Brightness Sun altitude
Exits shadow 21:11:13 13° 272° (W) 2,214 6.9 -44.3°
Drops below altitude 10° 21:12:36 10° 287° (WNW) 2,411 7.1 -44.6°
Sets 21:16:10 0° 312° (NW) 3,340 8.0 -45.4°
